Terminal Aerodrome Forecast
Issued by NWS

Home | Current Version | Previous Version | Text Only | Print | Product List | Glossary On
Versions: 1 2 3 4 5 6 7 8 9 10 11 12 13 14 15 16 17
000
FTUS45 KSLC 192345
TAFBCE
TAF
KBCE 192345Z 2000/2024 16007KT P6SM SCT200
     FM200200 26005KT P6SM BKN180
     FM201100 26008KT P6SM SCT070 BKN120=

USA.gov is the U.S. government's official web portal to all federal, state and local government web resources and services.